Theta_e
310 310 311 311 311 311 309 311 312 311 312 306 305 295 291 290 288 299 302 304 297 292 282 281 283 278 282 285 283 284 285 283 284 283 285 283 284 284 284 284 282 283 283 281 281 282 277 281 278 281 280 281 280 281 281 282 280 279 276 280 281 286 272 269 275 277 278 279 277 279 278 281 280 278 277 277 274 273 273 272 270 271 269 268 266 266 273
310 310 310 310 310 311 310 310 309 310 309 307 302 292 287 287 290 293 300 301 296 288 280 281 279 279 285 283 284 286 285 282 282 283 283 283 278 282 284 283 284 283 283 281 282 282 275 281 278 278 278 281 282 281 280 281 281 280 280 277 280 273 275 274 267 268 275 277 275 277 278 280 279 277 276 276 275 273 269 272 268 270 270 273 266 266 272
310 310 310 310 310 310 311 310 308 308 308 303 302 290 289 291 288 290 294 299 296 287 281 283 280 279 280 279 281 282 283 284 285 284 283 284 280 280 282 284 284 283 284 283 283 282 282 278 278 277 276 277 281 279 279 278 280 281 282 285 280 275 274 272 268 267 266 266 267 270 275 277 279 280 279 277 275 275 273 270 268 268 269 271 265 267 278
309 309 310 309 310 310 310 310 309 309 307 306 302 296 289 286 284 286 289 293 291 286 283 282 282 280 276 278 282 280 281 284 286 285 285 283 284 283 285 283 282 283 281 280 280 282 282 280 276 274 277 274 280 280 279 280 279 283 284 282 280 273 276 276 270 268 269 274 275 279 280 278 275 278 279 279 275 275 274 272 268 271 272 269 274 276 277
309 309 309 310 309 310 310 310 309 308 306 306 296 289 289 285 284 283 284 285 286 281 282 283 280 282 280 279 280 279 281 283 285 287 283 285 284 286 284 284 281 280 279 280 280 280 280 280 278 275 274 272 276 280 279 280 281 284 280 279 275 272 270 274 277 275 277 279 279 280 280 277 279 277 277 280 277 273 272 272 274 275 269 271 278 278 276
308 308 309 309 309 309 310 310 310 306 307 305 295 286 286 285 285 284 287 286 283 280 284 282 282 282 280 279 283 281 279 279 277 283 285 285 283 285 284 281 282 282 282 282 276 280 278 276 275 272 272 273 275 278 281 279 283 282 278 277 276 271 271 270 272 271 277 279 279 280 279 278 278 278 278 278 279 277 272 274 278 278 273 273 278 279 277
308 308 308 309 308 308 309 309 310 310 304 303 292 289 285 285 284 285 286 283 280 282 285 284 284 284 279 281 283 280 279 280 282 282 282 284 283 283 278 280 281 281 282 282 277 279 272 273 272 273 273 273 276 273 275 280 278 278 277 276 273 272 268 269 270 274 277 278 278 279 277 277 277 278 279 279 278 278 277 277 279 278 276 279 279 279 279
308 308 308 309 308 308 309 309 310 310 305 304 296 286 285 285 280 285 282 280 278 279 280 284 282 283 282 279 282 283 282 282 283 284 283 278 281 282 281 280 281 281 282 282 278 279 278 277 275 273 274 276 274 273 275 274 276 277 276 275 275 275 271 277 272 271 276 278 277 275 277 276 277 279 279 279 278 277 278 276 277 277 277 278 278 277 277
307 308 308 308 308 308 308 309 309 309 309 292 290 285 287 286 282 287 287 281 281 280 279 280 279 277 280 279 284 284 282 283 283 283 284 283 282 283 282 281 281 280 283 282 281 282 281 279 280 279 278 275 278 276 275 279 276 274 274 275 273 272 270 270 269 272 274 277 276 276 278 277 277 276 276 277 277 276 278 276 277 275 274 276 276 275 275
307 308 308 308 307 308 308 307 307 308 303 290 285 288 286 285 287 284 284 281 281 281 278 278 278 278 281 283 283 283 283 284 284 283 285 283 285 284 284 281 283 279 280 279 281 282 281 282 281 280 279 279 279 278 279 278 276 275 273 272 273 270 270 271 269 272 273 278 277 277 277 274 269 269 277 279 279 279 279 279 278 277 277 274 272 273 279
307 307 307 308 308 308 308 308 306 306 297 290 286 286 287 289 290 283 282 284 279 279 280 280 279 282 283 283 284 283 283 283 284 280 281 286 285 283 283 283 282 276 277 282 283 281 280 279 278 278 279 280 279 279 279 279 279 279 274 273 272 269 271 270 271 269 271 277 277 278 273 269 268 278 281 281 278 279 277 277 276 277 278 276 278 278 279
307 307 307 307 308 308 308 307 306 305 300 293 292 288 286 284 288 281 282 282 281 278 279 278 281 283 283 283 283 283 284 284 283 284 283 283 285 283 284 282 280 280 283 280 278 280 278 279 280 278 278 278 278 279 279 279 279 280 280 275 271 271 271 270 268 270 271 274 274 272 268 266 274 282 282 282 281 280 279 277 276 277 277 278 277 278 278
306 306 307 307 307 307 308 308 307 305 302 295 295 290 286 284 292 283 283 283 278 277 276 277 276 277 278 280 283 282 282 282 282 282 283 284 283 283 284 283 282 283 281 281 280 281 280 277 279 280 279 279 278 278 278 279 279 280 278 279 275 269 271 270 271 269 270 270 267 265 269 278 280 281 281 282 281 279 279 278 277 277 278 278 276 279 279
306 306 306 306 306 306 307 308 308 306 305 301 296 286 287 287 289 283 280 282 280 277 275 278 277 279 281 282 281 282 282 281 279 282 283 284 283 283 284 285 284 284 282 281 280 279 279 275 273 274 276 275 271 275 281 280 279 279 279 279 280 276 272 271 271 269 268 267 268 272 278 277 277 276 279 279 275 275 275 272 276 277 279 279 278 278 279
305 305 305 305 306 306 306 307 308 308 305 301 297 294 294 290 287 289 284 285 282 280 280 281 280 280 282 282 283 281 277 278 280 281 283 283 281 283 285 285 282 281 281 280 278 278 277 273 270 272 271 272 271 272 277 280 279 278 279 278 278 278 273 272 270 270 269 268 267 269 267 268 270 277 279 280 279 279 280 276 274 279 279 280 278 277 278
305 305 305 305 305 305 306 307 308 308 308 305 298 296 296 291 285 291 284 285 284 281 283 286 285 283 283 283 284 282 280 279 279 280 278 280 283 283 284 281 281 282 281 280 278 277 274 274 272 269 271 271 273 275 272 277 278 278 275 278 278 277 277 272 270 270 268 269 267 266 265 268 274 275 277 279 280 280 280 275 273 278 279 279 279 277 278
304 305 305 304 305 305 306 306 307 308 308 305 294 297 297 297 294 291 284 284 284 281 284 283 283 285 280 283 281 280 281 281 282 279 278 278 284 283 283 281 279 281 283 280 278 276 274 270 271 272 270 276 273 272 277 276 276 276 278 277 277 273 271 272 271 266 269 266 265 267 266 265 273 277 278 279 280 281 277 267 268 277 279 280 279 278 278
304 304 304 304 304 305 305 305 306 307 308 307 300 297 294 297 292 290 287 283 282 280 284 285 286 280 281 283 283 284 284 282 281 281 281 282 281 282 283 284 282 281 284 279 276 272 269 272 274 271 270 275 279 278 270 274 272 272 275 277 274 270 270 271 271 269 272 273 268 268 271 275 276 277 279 279 281 279 268 264 270 278 279 280 279 279 279
304 304 304 304 304 304 305 305 305 306 307 307 296 296 297 298 297 292 289 283 283 282 284 283 285 286 285 287 287 286 287 288 285 278 277 277 282 284 284 283 284 282 281 280 275 276 275 271 274 271 271 271 277 273 275 272 270 276 276 275 270 272 270 269 270 268 270 269 268 271 268 274 278 279 280 280 276 267 265 274 280 279 279 280 280 279 279
303 304 304 303 303 304 304 305 305 305 307 307 301 296 294 298 297 293 290 284 279 283 284 285 286 287 287 288 286 284 283 281 281 281 277 278 281 285 279 277 281 281 279 278 273 276 273 273 274 276 271 268 275 279 274 275 276 276 277 274 274 274 271 270 269 269 270 269 271 271 267 273 280 279 278 280 271 272 278 279 279 280 279 279 279 279 279
303 303 303 303 303 303 304 305 305 305 306 306 300 295 296 299 297 296 293 293 288 286 283 287 285 284 285 284 285 286 286 285 284 281 283 281 285 282 273 275 277 280 277 276 275 273 275 273 270 274 275 276 275 279 272 272 275 278 278 274 274 274 270 267 269 273 271 271 268 267 275 278 280 279 273 276 278 280 280 279 277 279 280 279 278 278 279
303 303 303 303 303 303 303 304 305 304 305 306 303 298 295 294 294 298 295 294 289 284 285 286 286 286 288 289 289 288 288 288 286 286 283 281 282 283 282 282 284 280 280 280 277 275 275 276 273 273 271 274 276 274 273 272 272 273 276 277 272 277 273 275 272 272 271 269 273 279 280 279 281 280 279 279 280 280 280 279 278 278 278 279 278 278 278
303 303 303 303 303 303 303 303 304 304 304 304 300 296 293 291 294 296 295 292 285 286 285 285 286 287 289 289 290 290 290 289 288 285 285 284 281 283 282 281 280 284 283 282 278 277 277 277 275 276 273 272 274 272 271 272 271 270 274 277 277 278 279 278 276 272 277 279 279 280 279 279 279 281 281 280 280 281 281 279 278 278 279 279 278 278 278
302 303 303 303 302 302 302 303 303 304 303 303 299 294 292 291 292 292 291 288 284 284 284 285 282 284 283 286 287 288 289 289 288 289 289 288 282 279 282 285 285 283 282 283 283 281 278 277 277 274 273 273 273 274 271 271 267 273 273 274 275 278 278 277 270 275 273 269 278 278 278 279 279 280 281 282 282 281 280 279 278 279 279 279 279 278 278
302 302 302 302 302 301 301 302 303 303 303 301 298 297 294 292 293 291 285 285 285 283 283 283 283 288 289 289 288 288 287 289 290 290 289 286 286 284 283 287 286 285 281 284 281 282 279 277 275 275 273 277 276 275 277 273 274 278 275 272 273 273 280 275 275 274 273 273 277 278 280 280 281 281 279 279 279 280 279 280 279 279 279 279 279 279 278
301 302 302 303 302 301 301 301 302 303 302 301 299 294 293 290 294 291 290 287 283 283 284 281 285 288 286 288 287 288 289 288 287 288 289 288 287 285 285 284 284 286 284 283 281 280 279 279 278 276 275 278 280 275 272 278 280 278 275 270 277 277 279 272 276 274 275 278 279 279 279 280 280 280 280 280 279 279 278 279 279 279 278 278 279 279 278
301 301 301 302 302 302 301 300 301 302 302 300 297 295 294 294 296 294 291 289 288 284 282 281 282 285 287 288 290 290 289 286 284 285 288 289 288 287 285 284 283 281 283 280 279 278 278 277 276 276 275 278 274 275 275 277 276 269 269 277 278 277 274 277 276 271 271 273 275 277 272 271 276 278 279 278 279 278 278 278 278 278 277 278 277 278 279
300 300 301 301 302 302 301 300 300 301 301 300 298 295 295 294 294 296 296 293 290 283 283 280 281 286 286 288 290 287 287 285 283 284 286 287 287 285 284 283 283 281 279 280 279 277 275 276 276 276 274 274 275 277 275 274 273 272 274 276 278 276 276 276 272 272 271 276 278 278 278 277 277 278 278 278 279 278 277 277 277 278 278 278 278 277 277
300 300 301 301 301 301 302 301 300 300 301 299 292 293 294 294 295 296 296 296 288 284 285 285 285 284 282 288 288 286 285 285 282 282 284 285 285 282 283 281 281 279 279 278 278 276 275 277 278 279 279 280 279 275 274 273 269 268 274 278 279 280 281 279 278 277 278 280 279 279 277 275 276 277 278 278 279 278 277 278 278 278 278 278 278 278 277
300 300 300 301 301 301 302 302 300 300 298 291 290 283 283 287 293 294 296 295 291 286 283 282 281 281 285 287 287 285 286 285 283 282 282 282 282 281 280 281 280 284 281 279 277 277 275 278 277 280 281 282 279 275 274 273 268 273 278 279 280 280 280 280 280 278 276 279 278 278 277 277 278 278 278 279 279 279 278 278 278 278 278 279 278 278 279
299 300 300 300 301 302 302 302 301 298 296 291 285 283 282 282 286 296 297 296 294 289 284 282 282 282 283 286 284 285 287 284 284 283 283 281 280 279 279 280 279 282 280 279 279 276 278 275 275 278 280 283 280 274 274 270 269 272 277 278 278 278 278 278 280 279 279 278 278 278 278 277 278 278 278 278 279 279 278 278 279 279 279 279 278 279 279
300 300 300 300 300 301 302 302 301 299 295 294 288 283 283 285 288 296 297 296 294 287 282 281 281 279 279 282 286 286 285 284 283 284 283 283 280 280 279 280 280 283 283 276 278 277 275 278 277 276 277 282 281 272 269 268 268 270 276 277 278 278 278 277 277 278 278 278 277 275 275 276 278 276 275 278 278 279 278 278 279 279 279 279 280 280 280
299 299 299 299 300 301 302 302 301 299 295 297 301 300 300 299 299 297 296 291 286 281 281 281 277 278 279 280 284 286 286 282 281 282 283 282 281 281 279 281 280 282 289 282 275 274 276 279 279 275 278 279 276 274 270 271 273 276 277 278 277 277 277 278 278 278 278 278 278 274 273 274 276 278 278 279 279 278 278 278 279 279 279 279 278 279 279
299 299 299 299 300 300 301 302 302 301 298 292 289 292 292 299 297 297 294 289 284 283 284 282 274 274 276 279 280 283 285 282 278 278 279 281 283 283 280 281 281 278 281 278 280 281 278 279 275 275 277 275 275 269 267 274 276 276 276 276 277 277 277 277 277 277 278 278 278 278 278 278 279 279 279 278 278 279 279 279 279 278 278 278 278 278 279
299 298 299 299 299 300 301 300 291 291 290 289 289 290 293 299 298 297 294 288 284 282 281 281 278 273 274 275 274 278 284 281 280 279 279 280 281 281 281 278 278 276 280 283 279 278 275 277 280 274 273 272 270 268 270 274 275 276 276 276 276 276 276 275 276 277 278 278 278 278 278 278 277 277 277 277 278 278 278 278 278 278 277 277 278 278 279
298 298 298 297 299 299 291 292 291 288 285 284 287 295 298 298 297 292 290 290 289 280 279 279 276 275 274 272 272 277 285 278 278 277 276 279 279 281 280 275 274 278 280 277 274 276 276 281 278 274 270 269 269 271 274 275 275 276 276 276 276 276 276 276 276 277 278 278 278 278 278 278 277 277 277 277 278 278 278 277 278 278 277 277 277 278 278
297 296 296 297 292 286 286 284 289 288 286 290 293 297 298 297 292 290 289 287 288 286 282 277 277 276 278 275 276 279 282 276 278 275 275 277 276 276 274 274 275 279 274 270 273 275 278 280 274 270 268 267 270 276 277 277 277 276 276 276 277 277 277 277 278 278 277 277 277 277 277 276 276 277 277 277 277 278 277 276 277 277 276 276 277 277 278
296 296 290 286 282 281 282 283 285 289 296 296 295 289 287 287 283 283 283 283 283 285 282 281 278 277 278 276 274 280 280 274 276 275 273 276 276 274 275 276 277 277 271 271 276 281 276 271 270 269 272 276 276 277 278 278 277 277 277 277 278 278 278 278 278 276 275 274 274 275 275 276 276 276 276 276 277 276 277 278 278 278 278 278 278 278 278
294 288 284 282 283 282 282 284 290 298 293 292 288 284 283 283 280 277 277 279 280 280 279 278 275 278 276 272 276 281 280 276 273 271 272 274 275 274 274 270 275 274 269 268 273 278 271 270 268 268 272 277 278 277 277 277 277 278 278 279 279 279 279 278 278 277 276 275 275 276 276 275 274 275 277 277 277 278 278 278 278 278 278 278 278 278 278
287 285 285 282 282 283 287 291 297 291 287 285 284 281 277 281 280 276 279 274 275 277 277 275 277 278 280 277 275 275 282 277 273 271 272 277 279 273 273 274 274 271 266 267 270 272 272 267 267 266 269 272 275 276 276 277 277 278 279 279 279 279 279 278 278 279 278 278 278 278 278 277 277 276 276 276 276 276 277 277 278 278 278 278 278 278 277
285 283 281 283 283 285 286 289 288 283 282 280 279 277 276 276 277 276 275 271 273 275 277 276 273 273 275 277 277 275 280 280 277 275 273 273 276 277 272 270 275 269 269 266 271 271 268 268 265 264 265 273 275 276 276 277 278 278 279 279 279 279 279 278 278 279 278 277 277 277 277 277 277 277 277 277 277 276 276 277 277 277 277 277 277 277 278
288 286 286 289 289 288 285 285 284 283 280 281 275 273 274 276 275 273 276 271 272 274 275 274 273 272 275 278 276 275 275 277 276 275 273 270 277 272 270 272 270 265 263 268 272 271 269 267 264 265 270 274 276 277 277 277 278 278 278 279 279 279 278 278 278 278 278 277 277 277 277 277 276 277 277 277 276 276 276 276 276 277 277 278 278 277 277
296 293 289 284 282 282 283 279 281 278 274 274 273 270 272 270 272 271 271 276 275 274 275 275 275 279 277 277 275 274 275 280 278 274 273 271 277 272 264 264 264 265 267 270 269 267 265 265 264 270 275 275 276 277 277 278 278 278 278 279 279 279 279 278 278 278 278 278 277 277 277 276 276 276 277 277 276 276 276 277 277 277 277 277 277 277 277
288 286 283 280 279 279 282 277 282 277 274 274 270 270 269 268 272 273 270 273 273 272 275 273 275 276 272 274 275 275 275 277 281 275 273 274 272 265 264 262 261 269 271 270 265 266 264 266 267 271 274 276 277 277 278 278 278 278 278 279 279 279 278 278 278 277 277 278 277 277 277 276 276 276 277 276 276 275 275 276 277 277 277 276 276 276 274
282 281 278 276 275 279 278 274 278 274 271 272 276 272 271 270 271 272 272 275 274 274 274 273 274 273 274 275 275 277 278 272 276 271 268 270 268 267 264 266 266 267 265 264 264 263 266 266 271 274 275 276 277 277 278 278 278 278 278 278 278 278 278 277 277 277 277 277 276 276 276 276 276 275 276 276 276 276 276 275 276 276 276 276 274 272 272
280 278 278 275 275 275 274 271 272 271 275 274 275 272 272 271 270 272 274 272 273 272 273 273 272 273 272 274 273 271 270 272 270 270 270 268 266 265 267 268 266 263 264 264 263 263 265 268 273 274 276 276 277 278 278 278 278 278 277 277 277 277 277 277 277 276 276 276 276 276 276 276 275 275 275 275 275 275 275 276 276 276 275 273 271 270 271
280 279 277 275 273 273 274 272 273 274 273 274 272 270 272 273 273 275 274 273 272 273 273 272 273 273 272 271 270 272 270 271 268 270 269 267 266 268 271 265 263 261 262 261 260 261 265 272 275 276 277 277 277 277 278 278 278 278 277 277 277 277 277 277 276 276 276 276 276 275 275 275 275 275 275 274 274 274 275 275 276 276 273 271 271 270 270
276 278 277 274 273 272 272 274 274 274 273 272 272 272 275 276 274 274 274 273 274 276 273 272 272 271 271 272 270 270 270 271 268 269 268 265 268 268 264 263 263 263 263 263 263 267 272 275 276 276 277 277 277 277 277 277 277 277 277 277 277 276 276 276 276 276 276 275 275 275 275 274 274 274 273 273 273 273 274 275 275 273 271 270 270 269 268
279 275 274 271 273 274 275 276 275 275 273 270 270 271 272 273 273 272 272 272 275 273 275 274 273 271 270 271 267 267 268 270 267 265 266 263 263 262 259 258 255 260 264 263 266 273 274 276 276 276 277 277 277 277 277 278 277 277 277 277 276 276 276 276 276 276 276 275 275 274 274 274 273 273 272 272 272 273 274 275 273 271 270 269 268 268 268
277 275 276 273 273 275 273 273 273 273 272 270 271 271 271 271 272 272 273 274 272 273 273 275 276 272 269 264 263 263 265 267 266 266 265 264 262 261 263 261 261 263 265 269 272 275 276 276 276 276 276 277 277 277 277 277 277 277 277 277 277 276 276 276 275 275 275 275 274 274 273 272 272 271 271 272 272 274 274 273 271 270 269 268 268 267 267
277 274 273 276 276 274 273 273 271 271 272 272 270 271 272 271 272 273 275 273 273 272 270 269 269 269 267 265 264 264 267 268 267 266 264 262 263 263 263 264 264 265 273 275 275 275 276 276 276 276 276 276 277 277 277 277 276 276 277 276 276 276 276 276 275 275 274 274 274 273 272 271 272 272 273 273 273 273 271 271 270 269 268 268 267 267 267
272 272 273 275 274 273 273 275 274 272 272 272 272 275 275 272 276 273 276 274 272 270 271 271 269 268 266 267 267 267 267 266 265 263 264 265 264 262 262 264 271 274 274 274 276 276 276 276 277 277 277 277 277 277 277 276 276 276 276 276 276 275 275 275 274 274 273 273 272 271 271 271 271 272 272 272 272 270 268 267 268 268 267 267 267 267 267
Wind_Speed
15 13 9 8 5 2 1 2 1 1 1 1 1 1 5 5 3 2 7 5 6 16 8 3 7 4 1 2 1 1 1 1 2 3 2 1 1 1 3 1 1 1 0 1 1 1 1 0 1 1 0 1 3 2 3 2 3 1 4 1 0 2 1 2 7 8 8 9 3 2 2 2 2 2 1 1 3 5 7 7 4 4 5 2 2 4 13
17 14 11 10 6 4 2 3 1 2 2 1 2 8 4 3 3 4 6 6 7 11 5 4 2 2 0 2 1 1 1 2 4 2 1 1 3 1 0 2 1 1 0 1 1 0 1 1 2 2 0 1 1 2 4 1 0 1 0 1 3 2 1 2 5 7 11 11 6 2 2 1 2 4 6 4 1 2 1 1 1 1 8 9 3 11 12
18 16 15 12 10 6 4 2 1 1 2 3 1 3 3 3 1 4 7 11 10 5 4 9 6 1 3 1 4 2 3 0 1 1 1 1 1 1 1 1 0 1 0 0 0 1 1 2 1 0 1 2 0 6 4 2 1 0 3 1 2 1 3 1 1 4 8 11 11 11 15 13 11 7 0 0 4 0 7 4 1 3 6 4 4 8 14
18 17 14 14 12 9 7 5 4 3 3 2 4 2 2 2 4 6 8 9 8 6 2 6 8 6 2 5 1 2 2 1 2 3 0 1 1 0 0 1 1 1 3 3 2 1 1 1 2 2 2 2 1 4 3 1 1 0 1 1 1 0 1 2 5 5 6 10 8 7 2 7 9 18 19 19 3 5 3 1 2 9 6 4 13 14 17
19 19 16 14 14 11 8 5 4 3 2 3 6 5 4 2 6 1 1 3 9 4 5 2 3 2 3 4 0 6 1 0 1 5 0 0 0 0 2 2 2 3 3 1 2 1 4 2 0 2 3 2 2 2 3 2 3 1 1 2 1 1 1 6 6 7 11 11 9 11 6 9 14 14 18 20 9 4 3 6 13 4 4 12 13 14 12
20 18 16 14 16 13 10 7 6 2 2 2 5 5 4 5 1 2 1 5 0 5 5 4 5 3 5 1 1 1 1 4 0 2 0 1 0 0 0 5 3 1 0 0 1 5 4 1 2 3 1 3 4 3 1 1 1 3 0 1 0 1 1 6 6 9 11 14 11 13 11 8 11 14 18 17 17 13 10 12 16 10 7 15 18 17 16
19 18 15 13 16 15 12 10 6 3 0 2 5 8 3 5 3 2 0 4 1 1 1 2 6 9 4 2 3 1 3 2 1 0 3 2 3 4 1 4 5 5 2 1 1 1 4 4 3 1 4 2 5 4 2 0 2 1 0 1 1 1 4 6 6 6 9 14 11 11 9 5 8 13 18 13 11 14 13 15 15 10 12 16 16 16 16
17 16 14 13 19 17 16 12 9 4 2 2 10 3 5 1 3 1 5 6 4 0 0 1 6 7 3 4 1 1 0 0 2 1 1 2 2 1 2 5 6 5 2 0 1 1 2 3 3 4 2 7 1 2 2 2 1 0 1 0 1 2 6 5 3 4 11 11 7 3 2 4 13 20 16 14 11 11 11 5 6 4 7 11 12 10 8
19 17 17 16 21 20 19 16 12 6 2 8 6 1 2 1 2 6 9 6 3 2 2 3 4 4 7 5 1 2 1 0 1 0 0 1 1 1 1 4 6 2 1 0 2 3 3 4 9 6 2 5 2 0 1 2 3 5 2 1 2 1 5 3 2 8 13 6 2 6 8 9 12 14 10 9 14 12 10 8 6 6 8 11 13 11 11
20 18 17 13 22 22 21 20 17 11 9 8 3 5 1 3 1 6 7 6 2 3 2 2 4 5 1 1 0 1 1 1 1 1 1 0 0 1 1 2 1 5 3 3 3 2 2 6 6 4 4 3 5 3 2 1 0 4 1 0 1 1 1 5 4 9 10 13 8 13 13 7 7 5 13 14 11 7 11 7 13 10 4 9 9 8 12
22 20 19 17 17 22 24 23 22 18 4 6 6 1 2 1 2 3 6 9 4 4 1 5 7 1 1 3 0 2 1 0 1 1 1 1 2 1 1 1 3 3 2 2 0 1 3 1 1 1 2 4 5 5 4 4 4 5 2 1 1 0 0 2 0 1 10 16 13 13 8 11 3 3 15 17 11 12 17 7 6 11 11 5 5 8 12
23 23 21 21 19 23 25 25 24 23 14 3 7 5 1 0 4 6 5 9 1 5 7 1 0 1 1 1 1 0 0 1 1 0 1 0 0 1 3 1 1 5 1 0 0 0 2 2 1 2 2 3 3 5 6 8 7 4 5 3 1 1 1 3 1 1 8 8 8 10 12 5 3 8 14 16 14 15 17 3 9 9 15 16 17 16 17
23 23 23 23 20 20 22 22 22 20 14 9 10 6 0 1 3 5 8 9 4 5 4 1 1 1 0 1 2 1 1 1 2 3 1 1 2 2 1 0 1 2 1 2 2 1 2 4 4 2 3 1 2 4 7 8 7 6 4 5 3 2 0 2 3 3 4 6 3 6 11 10 10 9 12 21 21 23 22 10 6 13 13 15 16 14 14
24 22 24 23 19 19 21 19 17 19 16 12 13 4 1 0 3 4 3 8 2 1 3 3 2 2 2 2 1 1 1 3 2 1 2 1 0 2 2 2 1 1 1 1 1 1 3 4 3 7 8 6 3 1 2 3 3 5 6 6 5 4 0 1 5 2 3 3 5 12 12 10 9 13 13 13 13 15 11 14 3 6 14 14 15 17 19
23 22 22 22 21 21 22 20 17 14 12 9 13 7 8 6 3 6 2 9 7 1 0 2 1 1 1 1 0 2 3 1 3 2 1 1 0 3 2 2 0 0 1 1 4 3 1 0 4 7 7 8 7 6 3 1 2 2 2 4 4 5 4 3 2 4 2 3 7 7 4 9 6 11 12 11 15 16 16 4 6 12 24 21 21 23 25
22 21 21 21 20 19 21 19 18 14 9 4 11 8 9 3 1 5 7 8 9 4 3 1 1 1 1 0 0 3 0 1 1 1 1 1 2 3 1 0 0 0 1 2 1 1 3 3 2 3 3 3 2 2 5 4 3 0 5 2 4 2 3 1 3 6 5 4 6 4 6 1 5 13 17 16 19 18 13 6 10 11 25 21 21 24 22
21 21 21 21 19 18 15 16 19 17 16 8 6 8 9 8 4 3 6 7 8 4 0 2 2 1 2 1 3 3 1 1 1 1 2 3 1 2 3 0 1 1 0 2 4 3 6 2 0 2 4 2 1 3 6 2 6 6 0 2 2 0 1 1 2 5 5 2 2 8 2 0 9 10 13 15 22 15 10 18 12 18 19 18 18 20 20
21 21 21 20 20 20 18 18 18 17 13 11 12 10 6 6 3 2 8 7 8 2 2 2 3 3 3 1 1 2 1 2 3 1 1 1 2 2 4 4 6 2 1 4 2 3 3 0 4 2 3 3 0 1 3 2 6 5 6 8 7 2 2 5 8 5 7 4 6 3 2 5 10 16 17 16 17 9 16 12 17 17 18 17 17 19 18
20 20 20 21 21 20 20 18 20 19 17 9 3 7 10 9 9 5 11 6 7 5 5 3 1 2 0 0 0 1 0 0 1 1 3 4 1 1 0 1 1 4 5 3 2 1 1 2 0 0 0 6 3 3 1 4 4 4 5 8 4 7 4 2 1 3 7 4 4 7 3 4 14 22 19 15 15 12 10 10 14 19 19 18 16 19 17
20 20 20 20 21 21 21 20 20 19 17 16 9 11 1 8 8 2 8 8 4 6 1 3 2 2 3 1 1 4 3 4 2 4 2 1 3 2 2 3 2 1 5 3 3 1 1 2 2 1 2 1 3 1 4 5 1 2 5 3 3 6 4 6 4 3 3 3 8 9 6 4 15 17 9 11 11 9 10 13 14 15 18 17 16 15 17
20 19 20 20 20 21 21 21 21 19 18 13 7 7 9 10 11 12 6 13 11 11 3 1 3 4 2 3 2 1 3 4 0 2 1 2 3 1 3 1 5 1 1 1 3 4 0 3 3 1 3 2 5 4 4 6 8 5 4 2 1 3 3 4 4 3 8 8 5 2 4 10 12 14 11 10 9 11 11 12 15 13 13 15 13 13 12
19 19 19 20 19 20 21 21 21 20 18 16 9 7 9 5 4 7 8 12 11 7 5 0 1 3 2 2 2 2 3 4 1 1 1 2 3 3 1 1 0 0 1 1 2 3 3 1 1 2 4 5 4 3 1 4 6 5 2 2 6 5 3 3 8 3 4 4 7 7 10 6 10 13 11 12 15 12 14 13 14 15 13 13 12 14 17
18 19 19 19 19 19 20 20 20 19 19 14 10 9 7 3 6 7 1 16 4 5 2 3 2 2 2 3 1 2 2 2 0 3 1 1 1 2 1 1 2 0 0 1 2 3 4 1 5 2 2 2 3 5 3 4 4 3 5 3 3 2 6 4 1 3 9 8 1 13 13 16 19 15 10 16 17 16 15 17 16 14 15 13 14 17 18
17 18 18 18 18 18 19 19 20 19 16 14 7 8 6 4 3 4 8 7 7 5 2 1 2 4 3 3 1 0 1 2 4 1 1 0 2 2 1 0 0 1 1 0 2 1 1 1 4 1 2 5 1 2 2 6 2 2 5 6 4 2 8 5 3 8 9 4 11 14 16 19 19 16 13 11 13 16 15 14 14 14 15 15 15 16 17
16 17 16 16 17 17 17 18 17 18 18 12 10 8 6 5 4 3 2 3 1 5 4 2 3 0 0 1 2 2 1 1 1 1 0 1 1 1 1 0 1 1 3 1 1 1 1 0 3 1 2 6 2 6 3 1 6 4 7 4 7 9 11 4 10 14 9 12 12 12 17 19 16 14 16 17 18 17 14 15 15 17 17 18 19 18 16
15 15 16 16 16 16 16 15 17 14 19 18 14 8 8 3 6 1 3 4 4 6 6 2 0 0 0 0 1 1 3 4 2 1 2 1 0 1 1 2 2 0 0 1 2 2 1 0 0 1 1 6 1 1 3 1 4 2 8 2 3 5 5 6 12 10 10 10 11 17 20 17 17 20 16 17 18 20 20 19 19 18 21 22 20 16 16
14 14 14 15 16 15 13 12 13 13 14 14 12 9 9 6 10 10 5 0 2 3 5 3 0 1 0 0 1 1 1 1 1 1 2 2 2 0 1 0 1 2 1 1 1 1 1 1 1 3 3 4 1 2 1 4 3 3 3 3 3 5 10 9 10 11 12 13 19 19 19 18 19 17 18 19 19 19 20 18 18 21 22 22 22 22 19
13 15 14 15 15 14 11 10 8 10 13 14 10 10 8 10 7 7 6 5 2 3 5 3 3 1 1 0 1 3 2 1 2 3 2 2 0 2 1 2 1 0 0 2 1 1 1 0 5 4 1 2 3 5 1 1 4 4 6 9 6 8 10 9 8 10 13 16 17 16 16 17 15 20 20 19 18 18 18 19 21 23 23 22 22 23 25
12 14 14 15 16 14 11 7 5 2 2 2 3 5 8 7 5 9 9 6 2 8 7 4 1 1 1 0 0 1 1 1 2 3 2 1 0 1 0 0 2 1 1 1 1 1 2 4 2 1 2 1 1 4 4 3 2 2 2 6 6 7 6 9 11 13 13 15 17 16 15 17 21 20 19 19 18 16 18 19 20 23 23 22 22 22 23
12 13 14 14 17 16 14 10 2 1 1 2 1 3 5 2 5 9 10 7 5 3 6 3 3 0 1 2 1 3 1 0 1 2 1 0 2 1 1 0 1 1 1 1 2 1 3 1 2 2 1 2 0 1 2 1 2 3 2 9 9 9 8 10 11 12 14 15 14 16 16 18 17 17 18 18 15 17 18 20 21 22 22 21 23 22 20
10 11 13 14 15 15 14 15 8 4 3 3 1 5 5 3 3 6 12 6 6 3 4 5 3 0 1 0 0 4 7 2 0 2 2 3 3 1 0 1 0 1 0 1 1 3 0 1 0 2 1 0 1 1 0 3 3 4 9 11 9 9 11 12 10 10 13 14 13 14 16 16 16 16 16 18 22 21 20 19 21 22 23 25 22 21 21
9 10 11 13 14 14 14 13 14 8 7 10 8 3 2 1 3 8 9 6 4 2 3 4 1 1 0 1 1 1 2 1 1 1 2 0 1 0 0 0 0 0 1 1 2 1 1 3 1 1 0 1 3 1 4 3 4 5 10 11 11 11 12 12 12 13 12 12 15 15 14 16 15 17 21 24 22 20 20 23 21 23 23 20 18 19 20
8 9 9 10 10 11 10 12 13 13 10 12 17 15 10 5 6 6 6 3 3 2 2 5 2 1 1 1 2 2 3 2 2 5 5 1 1 1 2 2 1 1 2 1 1 1 2 1 0 1 2 1 1 2 4 4 4 6 8 11 11 13 15 14 12 12 14 14 12 16 18 18 20 21 22 23 20 19 19 20 21 21 20 22 24 24 22
7 7 7 8 8 8 6 9 9 10 5 4 6 6 1 8 8 8 4 1 3 1 3 3 2 3 2 4 1 1 3 4 4 4 6 2 1 1 2 1 0 1 1 1 2 1 3 2 0 1 1 2 2 5 3 4 5 6 8 9 11 14 15 17 17 19 17 15 15 13 15 17 17 19 20 22 23 20 19 17 18 23 25 23 23 21 23
5 5 6 6 6 7 3 3 3 6 4 2 0 2 3 14 11 6 2 1 2 4 3 3 3 3 5 6 2 5 2 3 4 2 1 5 1 0 1 2 3 3 2 1 1 1 0 0 1 2 1 1 6 3 2 7 7 7 9 10 13 14 15 18 18 18 19 18 18 19 18 18 19 21 23 26 26 24 23 23 23 23 23 23 22 23 21
4 4 5 6 6 3 1 5 6 5 6 2 2 5 14 14 10 3 1 2 6 3 4 0 3 3 1 1 4 4 3 2 1 2 2 1 5 1 2 1 2 1 1 1 1 3 0 1 2 3 1 5 1 1 2 5 7 12 12 14 14 13 14 17 21 23 21 21 21 20 21 18 17 22 20 21 21 21 22 23 24 24 24 21 23 24 22
3 4 6 4 2 3 5 0 2 3 1 4 7 15 17 8 2 2 6 7 7 4 5 3 6 2 1 3 2 4 4 4 3 3 3 4 3 1 3 2 1 2 2 2 3 2 3 0 2 2 3 4 1 2 3 4 8 12 12 12 13 14 16 17 19 21 22 21 24 23 24 27 22 19 21 23 21 23 24 24 23 23 23 27 24 21 20
4 3 2 2 3 3 2 2 1 2 3 7 7 3 5 7 2 3 4 6 3 6 4 5 4 2 1 2 3 3 1 4 3 3 4 1 3 3 0 1 1 1 4 1 0 2 1 4 2 3 0 3 4 0 7 7 9 7 10 12 14 15 16 16 18 19 20 22 21 23 23 22 23 23 24 26 25 26 23 23 22 20 20 20 20 19 23
2 2 3 4 4 1 0 1 1 4 3 2 0 1 2 1 2 3 2 1 3 6 3 5 2 1 2 2 6 4 2 2 5 3 3 3 3 5 2 3 3 2 2 2 1 3 3 2 1 3 2 3 3 4 4 6 9 9 12 13 14 16 16 16 16 17 18 18 20 19 17 20 24 24 19 23 23 21 21 20 17 20 23 21 20 22 24
5 4 1 2 1 1 2 3 5 4 1 2 3 3 1 2 5 1 2 3 3 1 2 4 0 1 0 1 2 7 3 5 5 5 1 7 0 0 2 1 2 2 2 0 3 3 2 2 2 2 0 2 4 5 7 10 11 14 14 15 16 15 15 16 16 14 16 19 19 19 21 22 21 18 20 22 23 24 22 22 22 22 20 20 25 26 24
3 1 2 1 1 1 3 3 3 1 1 2 2 3 2 3 2 1 1 3 2 1 0 1 3 4 2 1 1 3 5 1 0 1 1 1 3 1 2 0 1 1 1 1 3 3 1 1 2 2 2 4 4 8 9 13 15 15 15 16 16 15 15 16 17 19 19 20 19 20 21 19 20 19 19 20 20 20 22 21 24 24 24 24 26 24 21
0 1 1 0 0 0 2 1 2 1 1 1 3 1 1 1 1 2 1 2 1 1 4 2 4 3 6 2 3 0 4 0 1 1 1 2 2 1 1 1 2 2 1 2 0 0 1 0 0 1 4 4 6 9 14 15 15 15 16 16 15 16 17 18 20 20 17 18 19 21 21 21 24 20 19 19 20 21 21 25 26 25 21 22 20 20 23
1 3 2 1 1 1 1 2 3 2 2 3 3 2 1 3 1 1 2 0 0 1 3 0 0 2 3 2 4 1 3 1 1 2 2 2 2 3 3 2 1 1 3 3 2 1 1 1 1 2 4 6 10 13 13 14 15 16 17 15 15 17 17 18 19 20 20 19 23 21 20 23 23 20 19 21 25 30 31 29 28 24 21 20 19 19 18
1 0 0 1 2 1 1 1 1 2 3 1 2 0 1 2 2 2 2 1 1 1 0 3 4 6 5 2 0 4 5 2 3 0 1 1 1 1 2 0 1 4 1 0 1 0 2 1 2 3 7 10 11 13 15 15 16 17 17 17 17 17 17 17 19 20 22 20 19 19 23 24 24 22 21 23 26 27 31 34 28 24 20 20 18 16 22
1 2 3 1 2 2 1 2 2 3 2 1 1 1 2 1 2 0 1 1 1 2 3 1 1 1 5 5 1 0 2 2 3 1 1 1 2 0 1 3 2 2 1 2 2 2 1 1 4 8 11 14 16 15 15 15 15 16 17 19 19 18 19 20 19 18 20 19 21 21 23 21 20 19 20 19 21 23 25 26 23 22 21 18 19 24 22
4 1 1 3 3 4 2 0 0 2 0 1 1 2 2 2 2 1 1 1 0 3 5 3 1 1 4 3 1 2 2 1 2 1 0 1 1 2 2 1 2 2 2 1 1 2 1 4 8 10 13 15 16 16 14 15 14 13 15 19 20 19 17 18 18 21 20 19 20 21 22 21 21 22 21 22 20 19 20 21 19 20 18 22 25 22 22
2 2 2 2 3 1 1 1 0 1 2 1 1 2 1 2 2 1 1 1 2 3 2 2 3 4 1 4 3 2 1 1 0 2 1 1 1 3 2 3 2 0 1 3 1 3 5 8 9 12 14 14 15 15 15 15 14 15 16 17 17 18 18 19 21 21 22 21 22 21 19 22 22 21 20 23 19 20 22 20 18 17 19 20 17 22 22
1 1 1 2 1 0 2 0 1 1 1 1 1 1 1 0 1 1 2 2 3 0 1 2 3 3 2 1 2 1 1 0 1 1 1 1 1 0 1 1 0 1 2 1 4 2 7 9 11 13 13 13 14 15 15 15 14 16 17 17 19 19 21 21 19 20 22 23 23 20 20 20 20 21 21 21 23 20 17 18 16 19 21 21 22 24 21
3 2 2 2 1 1 0 1 3 2 1 1 1 2 1 1 1 1 2 0 0 1 1 1 0 1 1 1 1 1 1 1 1 2 2 2 1 1 0 1 3 5 3 4 4 5 8 10 11 13 14 14 14 14 15 14 15 15 16 18 16 17 18 19 20 20 21 19 19 21 18 18 20 18 20 22 23 21 20 16 22 22 17 25 28 26 28
3 2 3 3 2 1 0 1 2 1 1 1 0 1 2 1 0 2 2 0 1 0 0 1 0 1 2 1 1 1 1 1 1 1 1 1 2 1 1 2 3 3 5 3 5 8 8 9 10 13 13 14 14 15 15 16 15 15 16 15 15 16 17 18 20 21 19 18 20 20 22 20 18 19 21 23 22 22 17 18 20 19 23 25 25 28 32
1 4 1 0 0 2 5 1 3 2 2 3 3 3 3 2 3 1 1 1 0 1 2 1 1 1 1 2 1 1 0 0 0 0 1 2 1 2 2 4 5 4 7 5 5 6 8 8 9 11 14 15 14 15 14 15 17 20 19 17 16 16 16 17 20 19 18 18 19 23 24 21 19 19 17 19 22 21 22 17 7 15 20 17 18 23 23
2 2 0 1 1 2 1 1 2 2 2 3 2 2 3 1 1 1 0 1 1 2 0 0 1 1 1 0 1 1 0 1 0 1 2 2 3 2 3 4 6 6 7 8 10 8 8 8 9 12 12 15 15 14 14 18 21 22 25 20 16 16 18 18 17 18 17 18 21 21 23 23 24 20 18 21 20 21 21 21 23 21 20 17 17 20 20
Wind_Direction
24 22 19 21 19 42 138 192 207 228 298 46 273 63 37 49 123 260 336 338 73 74 57 353 36 67 199 282 16 15 51 125 244 61 339 43 37 12 56 207 79 215 150 319 335 141 269 40 283 249 351 242 215 212 285 275 312 154 305 18 290 31 86 341 266 282 274 286 328 137 97 163 327 291 238 49 257 182 190 202 210 266 293 275 284 206 266
15 16 19 26 31 29 99 159 171 157 55 149 95 66 113 122 82 348 341 25 94 75 109 88 62 88 311 68 113 351 134 69 1 27 332 89 351 103 292 326 125 256 121 136 332 287 39 263 69 344 306 284 164 231 249 268 197 131 276 112 307 38 286 98 324 349 326 333 351 26 205 112 206 264 251 210 169 78 194 143 59 269 246 224 163 259 272
14 15 18 27 34 36 47 76 76 31 31 62 100 112 158 100 352 45 330 5 56 91 176 129 142 175 130 99 41 4 15 159 168 151 348 332 170 96 329 204 236 304 220 234 245 304 104 298 335 71 243 267 158 276 244 247 207 179 317 331 316 150 240 84 23 336 333 323 329 320 327 325 315 292 132 9 139 202 0 286 299 207 270 162 207 250 261
12 13 15 25 30 39 54 60 65 60 54 25 74 126 54 40 93 320 9 15 38 58 63 102 124 121 118 51 333 88 58 337 307 125 324 195 269 179 260 5 70 345 34 11 5 329 328 165 280 32 312 305 287 216 236 236 214 172 230 322 51 196 296 154 164 160 216 249 245 258 272 315 309 291 300 289 227 257 209 213 158 238 260 271 253 256 285
12 14 13 17 28 36 47 59 89 100 101 76 110 43 102 128 73 30 42 340 45 54 21 47 61 129 149 91 207 24 33 256 331 190 5 232 150 338 72 8 52 331 54 14 326 293 337 343 36 256 263 254 260 267 209 333 262 198 34 201 102 72 323 248 207 222 235 248 261 272 281 265 277 286 284 288 301 200 206 207 249 217 41 274 271 277 282
12 12 9 17 26 29 34 38 52 44 67 84 73 53 8 72 233 103 207 119 272 35 4 43 77 28 73 106 91 45 40 22 78 320 287 350 353 110 340 37 47 44 68 125 356 324 321 6 259 334 225 327 323 0 111 87 135 127 346 165 119 133 251 277 150 250 253 263 265 273 280 259 251 265 272 286 299 304 264 252 251 254 236 260 272 286 293
12 9 4 7 26 27 28 24 23 29 8 54 98 97 336 114 142 105 356 81 234 158 168 86 90 66 75 92 69 52 81 67 227 163 323 23 350 45 5 335 335 321 311 117 256 312 28 322 287 257 307 3 329 341 347 92 66 76 331 304 192 65 254 247 201 258 265 271 266 266 260 275 285 273 276 285 289 281 273 270 269 243 238 254 273 281 289
12 11 11 10 27 27 25 22 15 14 82 41 70 55 125 178 112 79 18 83 117 209 26 80 57 65 21 91 314 141 178 191 323 13 68 0 320 6 77 302 316 303 304 160 42 239 196 234 285 266 53 316 151 241 213 273 317 41 240 66 293 103 280 3 332 333 292 285 268 270 233 264 292 286 296 307 295 291 280 263 283 305 266 272 289 305 345
16 14 17 16 30 30 26 25 17 3 84 36 82 2 69 160 156 151 118 67 339 24 28 51 80 60 349 74 265 69 307 179 174 273 158 134 297 7 297 293 316 329 5 100 264 257 212 213 226 234 204 245 238 82 294 88 307 344 355 14 318 58 266 23 39 348 302 305 335 304 305 296 273 286 299 313 328 326 327 331 338 20 348 11 13 7 350
15 16 16 12 31 33 31 27 22 27 84 103 110 76 321 72 24 80 103 82 340 73 341 16 63 24 263 140 258 136 244 221 102 35 268 146 202 195 281 291 37 318 4 296 280 297 233 256 257 245 236 278 286 254 250 61 39 319 295 223 281 172 19 345 348 332 286 296 334 323 318 327 344 356 342 338 313 329 337 8 50 48 23 33 15 344 335
17 16 15 14 16 30 32 31 30 17 73 103 98 121 12 114 132 40 52 94 352 27 57 14 87 210 109 356 64 27 73 19 11 95 307 39 344 108 114 34 14 281 255 278 268 237 269 254 18 3 273 255 260 279 281 275 202 191 198 338 307 64 120 267 156 264 279 305 330 322 343 341 290 302 20 0 353 7 349 6 56 40 39 29 331 330 335
21 20 20 19 14 25 30 31 31 29 48 106 106 98 195 185 70 85 92 86 65 350 80 88 160 319 88 293 76 109 64 28 18 328 354 284 278 42 51 23 67 345 259 19 312 12 150 151 109 105 144 251 259 261 243 247 252 213 194 190 263 328 266 253 172 243 282 313 351 344 327 265 253 16 35 14 1 1 345 44 27 32 20 10 358 350 348
23 24 23 23 19 26 31 36 37 39 42 70 70 101 265 197 107 114 107 101 56 352 55 62 287 255 226 345 56 12 292 350 23 23 68 60 333 351 211 136 279 259 71 309 346 351 337 308 306 243 272 309 243 235 269 257 248 228 208 201 187 258 123 269 305 207 319 337 24 340 285 311 18 2 22 6 2 355 341 336 74 19 21 3 353 342 335
24 22 25 24 20 24 31 34 41 47 40 69 81 95 33 58 85 76 101 98 71 344 145 77 25 24 31 26 110 350 14 7 337 62 40 17 243 270 285 205 223 252 209 190 41 45 355 32 1 359 327 1 0 12 274 234 219 182 207 210 192 159 179 107 282 165 229 242 277 264 297 316 35 2 18 356 346 320 312 299 287 54 9 10 350 340 339
22 22 22 24 23 24 27 30 33 43 60 57 101 78 54 27 78 121 139 88 134 168 51 111 317 295 62 8 52 20 30 326 30 342 252 229 39 222 222 236 319 198 6 38 349 22 89 68 21 354 322 22 355 310 314 343 53 22 215 199 174 174 172 240 86 282 124 294 303 309 319 297 353 325 333 337 332 313 302 286 271 20 0 360 348 341 334
22 21 21 22 23 23 25 25 25 29 37 62 70 87 57 46 134 83 103 127 125 60 353 281 252 212 67 21 105 90 254 25 328 288 348 331 266 321 239 203 205 92 37 76 131 62 21 61 299 33 326 306 264 312 317 333 321 79 23 65 162 198 186 160 160 270 12 312 282 269 290 226 15 345 343 339 332 315 297 294 293 12 353 346 343 330 322
22 20 22 22 20 18 14 21 25 21 20 33 93 64 44 2 43 96 98 53 64 124 307 322 237 198 90 13 14 19 51 68 4 50 338 328 292 280 301 110 336 64 85 53 7 53 13 16 66 215 262 239 359 267 305 356 316 317 7 85 104 26 243 86 286 266 223 201 285 281 241 322 325 317 333 341 333 320 359 332 327 348 335 330 323 317 313
22 21 21 21 19 19 17 18 21 24 30 24 74 78 22 358 55 109 60 88 109 40 309 330 31 62 68 180 157 273 70 11 19 8 141 272 12 8 314 3 344 279 182 38 26 51 20 59 2 317 277 252 243 19 291 283 302 288 319 321 318 304 295 146 228 256 270 212 255 293 319 15 338 353 346 354 333 355 15 330 318 320 314 314 312 307 310
21 21 21 22 21 18 19 18 19 17 18 31 131 59 32 4 356 65 103 73 72 98 292 299 203 102 235 16 195 204 178 44 170 85 327 6 350 231 173 244 182 345 9 21 35 56 52 281 75 158 232 308 8 289 263 350 256 302 337 330 341 308 292 279 76 301 280 247 242 252 188 175 1 1 350 353 2 19 330 304 301 303 306 306 304 304 308
20 21 22 23 21 19 19 20 21 20 22 14 60 94 178 6 1 40 120 101 63 113 321 358 6 74 330 118 96 40 352 20 34 111 122 32 275 28 23 8 316 62 344 46 25 233 78 280 281 354 315 267 272 231 318 263 204 280 298 275 286 311 333 289 300 271 326 351 304 317 318 348 15 334 336 24 8 321 295 296 289 293 298 300 304 308 306
21 20 23 24 22 21 19 21 21 20 19 22 79 101 55 1 13 21 57 119 126 103 40 28 64 50 33 58 41 130 117 94 49 71 247 204 246 81 76 247 259 355 300 49 4 301 143 302 306 293 220 163 274 10 277 311 310 282 189 253 223 336 338 336 325 5 321 329 349 329 323 330 356 354 339 337 331 300 298 298 302 302 302 307 308 303 305
22 21 23 23 23 22 23 24 24 22 25 15 33 89 73 332 360 28 53 69 79 95 155 183 103 102 53 79 73 53 115 122 183 168 113 346 335 88 181 130 287 118 240 98 14 344 4 314 28 13 319 305 4 236 180 353 300 278 334 51 350 29 6 325 293 340 59 285 281 314 321 313 339 342 321 318 318 313 307 305 302 309 311 312 306 311 313
25 25 24 26 25 25 23 24 27 28 28 27 57 61 106 336 352 326 53 79 47 72 52 65 49 107 135 107 127 139 101 12 53 72 98 118 2 18 64 55 325 203 295 81 185 186 211 154 245 196 317 227 195 294 332 169 249 344 343 338 119 67 356 301 92 336 311 270 212 331 337 343 337 328 322 321 318 316 318 319 317 313 310 312 312 312 310
26 24 24 24 28 27 27 26 31 36 39 34 60 116 85 69 333 4 45 72 107 116 48 60 88 6 353 347 310 330 23 33 39 64 203 248 105 325 339 342 232 21 18 250 197 136 238 163 225 133 234 252 71 272 281 314 252 252 337 350 355 340 6 5 56 321 348 321 353 335 332 330 323 314 307 295 302 311 313 308 307 303 305 304 301 303 302
26 28 28 30 31 32 30 30 29 36 44 42 60 71 113 52 22 27 100 111 92 99 123 338 26 207 220 179 119 82 114 271 225 287 208 262 152 147 219 248 209 208 252 279 25 45 45 264 329 354 241 266 132 280 212 224 303 45 356 8 345 345 355 4 352 337 344 311 322 327 323 317 312 315 320 323 324 319 318 316 311 310 308 306 306 306 302
26 27 31 33 36 36 35 31 36 31 49 48 62 67 71 41 315 332 85 68 99 107 109 115 148 47 52 33 306 232 175 195 223 197 82 127 148 154 198 335 357 17 146 102 98 156 181 342 53 195 139 288 79 256 262 213 272 32 91 48 334 274 314 6 331 314 303 291 322 330 316 305 318 320 320 323 320 319 317 316 313 309 308 306 303 300 299
23 25 28 34 36 41 41 38 40 41 46 58 68 73 79 73 31 39 73 79 96 8 48 93 264 295 248 171 224 100 211 230 195 82 114 63 14 305 187 189 202 343 54 338 33 133 63 138 133 255 177 236 169 221 234 332 61 73 43 333 306 351 12 341 333 327 332 333 329 335 330 327 325 325 326 321 317 312 309 309 309 310 309 311 311 309 307
25 27 25 28 32 38 45 46 43 47 69 75 73 77 70 70 38 46 45 10 70 135 144 137 119 180 147 64 193 191 214 181 147 119 114 88 288 286 210 213 148 94 58 106 342 18 87 104 262 228 207 312 34 312 319 219 93 51 42 9 347 9 350 347 341 329 314 320 322 327 314 304 309 315 318 314 309 310 311 313 311 309 309 311 311 312 313
25 27 23 22 24 24 29 46 53 29 20 112 106 79 64 71 67 46 37 6 95 94 85 105 116 43 138 235 75 311 229 154 118 102 91 69 303 308 174 171 156 174 119 122 155 142 158 227 193 205 274 212 146 279 18 357 53 87 356 342 351 356 331 335 323 307 292 313 318 321 319 312 313 312 310 307 307 309 310 308 307 306 306 308 307 306 305
27 27 25 20 20 16 12 22 89 160 56 26 36 43 39 349 32 37 15 21 20 109 102 121 84 249 322 6 309 312 11 54 99 128 153 4 326 315 224 116 332 188 149 168 156 265 236 201 279 300 320 3 168 234 40 306 79 212 276 343 346 343 344 337 327 323 314 318 316 316 312 306 303 303 304 304 308 311 308 306 304 303 303 303 302 302 298
24 24 23 24 21 11 3 14 34 137 96 77 75 49 33 17 306 38 0 4 352 92 111 83 99 268 27 255 198 315 325 354 234 322 280 223 232 207 284 77 286 136 68 1 58 231 174 297 1 299 328 253 131 91 187 55 12 322 344 336 329 329 331 325 318 310 309 313 315 313 310 310 312 307 302 307 313 312 307 305 302 300 299 302 300 298 300
22 22 25 27 28 20 18 27 33 65 75 62 64 115 157 212 280 321 334 343 334 60 68 92 55 7 261 313 265 235 307 314 89 348 304 133 315 62 11 111 158 338 138 151 214 6 264 218 140 260 44 276 83 84 53 70 28 329 322 325 325 323 328 326 325 318 313 315 318 317 315 315 315 316 311 310 308 307 305 304 302 303 301 299 297 294 292
23 18 16 18 23 29 39 54 52 62 91 105 105 100 103 84 323 302 328 325 55 59 103 81 107 211 52 263 318 335 337 19 356 4 336 198 254 56 357 60 33 35 294 92 318 186 226 137 166 28 266 49 74 84 107 78 346 283 313 323 324 328 326 326 321 317 319 324 331 323 319 318 315 310 304 302 303 304 304 303 303 303 304 304 306 307 308
26 19 10 12 5 22 65 82 87 97 86 56 20 355 323 0 352 344 338 91 102 101 69 87 46 14 273 323 59 283 35 359 293 7 336 294 195 72 272 51 1 89 296 142 276 29 323 70 71 224 353 1 38 71 28 334 311 301 321 320 327 332 331 330 332 331 330 325 323 314 307 305 304 304 303 307 310 310 305 301 305 309 309 308 308 309 308
18 15 356 356 356 341 15 117 37 44 81 68 116 253 314 340 345 320 355 112 69 3 39 22 88 48 353 352 20 279 312 49 344 317 293 275 62 150 331 43 319 62 307 85 22 156 202 284 186 58 287 347 46 32 14 315 311 320 328 332 338 336 335 335 330 329 328 327 322 318 315 315 316 318 316 315 316 318 317 314 315 312 310 313 311 312 314
360 340 346 335 331 347 19 19 43 30 34 16 247 304 328 321 329 342 66 37 96 133 87 33 73 65 111 343 306 284 11 11 279 329 248 284 341 22 94 107 29 271 205 81 229 350 48 289 50 335 310 68 114 183 262 287 316 333 341 340 339 343 334 329 324 326 326 321 316 312 315 318 318 314 309 309 310 313 315 313 314 316 313 312 315 315 315
338 337 319 306 341 45 42 137 316 81 173 248 284 309 296 297 305 43 13 35 6 62 103 117 64 39 95 261 271 286 28 335 328 342 332 5 287 291 39 39 330 288 31 4 24 11 278 12 102 67 40 123 78 276 290 316 346 337 336 335 334 336 334 335 327 322 321 322 322 324 326 324 321 319 314 316 315 317 318 319 319 319 317 316 315 316 313
294 302 17 45 42 38 5 345 331 266 276 307 322 343 7 34 39 355 10 36 356 59 21 67 88 276 349 56 309 263 39 269 33 355 308 280 337 323 9 93 237 358 346 284 272 211 244 40 67 113 122 189 183 130 1 342 333 326 329 336 335 337 334 330 325 325 324 323 326 326 324 321 321 321 321 319 319 318 316 315 316 314 312 309 311 311 312
42 28 49 30 92 56 189 279 263 319 334 300 52 66 6 20 48 27 345 329 20 21 326 78 12 346 29 332 281 303 98 340 337 4 354 287 41 310 34 36 303 40 310 16 301 47 17 346 41 46 40 287 310 331 318 309 328 332 337 335 336 334 331 326 325 326 321 317 313 312 314 316 319 318 314 313 313 312 311 313 314 316 316 313 313 315 315
38 45 49 33 79 238 259 294 353 17 43 54 344 93 66 357 71 359 328 35 1 329 33 22 211 228 130 295 288 306 333 42 0 312 292 312 19 183 280 55 285 59 314 47 260 15 83 325 297 71 252 283 292 312 331 328 332 340 338 333 332 329 326 323 319 317 313 309 311 311 313 312 313 310 312 312 313 314 317 318 319 317 317 315 317 320 322
17 71 31 69 257 292 286 308 352 56 64 41 29 12 54 13 35 184 38 51 72 283 155 185 1 5 316 53 107 267 294 58 203 148 129 229 253 51 35 20 253 68 290 273 289 55 47 21 11 127 222 253 283 322 322 337 342 335 333 331 328 327 325 323 320 321 321 320 318 317 315 312 313 313 313 310 310 312 316 316 316 317 316 319 326 324 320
210 158 213 157 107 279 350 12 65 41 13 98 102 4 339 222 343 14 83 87 319 313 314 39 350 339 297 279 270 179 295 185 142 83 72 345 308 86 239 335 358 99 258 246 254 17 82 49 352 313 272 291 307 323 340 335 331 328 328 329 328 328 328 327 324 322 320 316 314 315 315 315 317 317 318 317 314 315 315 316 315 316 317 322 320 319 320
21 31 60 64 16 7 70 47 341 84 75 1 31 29 359 46 11 124 293 338 297 95 279 93 217 259 277 34 327 163 202 272 21 331 62 259 307 59 75 7 46 9 250 329 45 25 23 300 314 283 307 314 333 335 332 329 328 326 326 328 330 329 327 325 324 322 320 319 318 316 314 315 315 314 315 313 315 317 319 319 317 317 320 320 318 322 332
33 33 12 342 58 312 49 31 321 47 27 44 84 118 327 17 318 14 16 309 330 352 25 24 303 53 309 305 168 311 0 354 61 71 332 282 71 329 39 335 217 251 266 33 48 39 238 227 193 263 320 332 330 331 334 333 332 328 326 328 328 328 326 324 324 324 321 320 315 315 317 316 316 316 320 321 324 324 321 318 321 321 317 317 326 339 340
78 358 28 21 35 295 53 349 349 96 93 291 107 166 146 203 247 208 204 261 101 245 305 35 16 13 273 280 2 195 105 257 297 94 277 13 2 229 105 271 279 15 71 286 315 309 353 300 307 336 333 333 332 330 331 330 331 328 324 322 326 328 328 327 324 321 318 319 318 317 317 316 316 318 321 323 325 325 323 321 322 320 323 334 338 333 333
61 112 50 66 3 341 80 133 349 59 326 131 186 188 159 224 175 211 265 97 255 307 333 306 339 289 277 259 136 251 337 39 23 334 235 56 92 293 259 299 88 47 349 36 343 280 251 283 324 327 331 328 324 325 328 326 325 322 326 326 326 326 324 323 322 321 319 317 317 319 317 319 320 324 324 326 324 321 320 320 319 321 336 341 336 331 329
54 10 76 116 96 286 77 107 318 182 174 171 219 184 169 190 197 196 219 158 206 227 265 251 223 188 198 304 7 351 46 47 119 274 59 26 235 281 21 86 318 320 359 304 280 278 304 317 321 323 325 323 321 322 326 324 324 326 323 320 321 323 322 323 323 320 320 318 317 318 319 321 323 323 324 324 324 326 320 319 322 340 342 333 328 326 324
94 240 82 80 231 161 56 313 133 77 22 122 207 166 153 103 58 44 254 211 209 129 13 8 14 350 5 304 94 202 246 47 42 311 129 213 324 17 359 26 306 247 199 207 249 258 305 321 321 318 318 320 318 321 323 324 323 323 321 320 321 323 322 323 322 321 321 320 321 319 320 320 323 324 323 319 318 319 318 320 335 342 336 333 332 330 327
115 85 96 154 174 123 174 154 97 109 262 351 71 81 89 100 207 249 253 222 166 250 200 123 222 96 269 258 91 25 12 333 73 274 4 21 77 246 60 259 328 326 268 172 224 306 313 316 313 311 315 318 320 321 321 322 322 321 321 321 321 322 320 320 321 317 317 317 316 318 320 322 323 319 317 319 323 323 325 332 335 333 336 335 332 330 327
57 24 25 66 54 21 168 124 74 85 300 323 302 266 197 145 248 273 191 207 238 133 12 64 73 100 229 94 347 9 243 318 138 318 45 292 209 263 54 295 232 222 271 293 309 311 310 310 311 311 313 316 319 323 324 323 322 319 319 320 323 321 318 318 319 318 318 319 319 320 322 325 325 326 324 323 317 310 318 331 329 329 331 332 329 327 328
18 113 155 195 131 212 147 140 185 189 228 240 216 218 174 194 178 216 230 142 47 49 48 75 244 88 8 10 70 32 287 129 48 60 159 223 213 119 183 230 244 240 285 292 278 287 301 302 307 309 315 316 319 322 325 322 322 320 318 319 320 319 315 316 317 318 319 321 322 327 328 327 323 317 314 315 315 319 319 316 318 327 329 326 328 325 324
51 49 349 292 85 108 128 125 76 130 179 194 161 208 131 82 218 228 235 96 63 88 262 211 80 34 53 193 237 201 291 43 82 21 347 264 144 153 218 208 266 287 290 307 313 311 305 300 302 310 313 315 318 322 321 318 317 315 316 319 321 320 318 320 318 320 323 324 328 330 324 322 321 320 319 318 320 328 332 333 335 337 333 331 327 326 326